Three Rivers, MI

12:39 AM EST on February 25, 2017 (GMT -0500)
Three Rivers Municipal-Haines

Weather History for KHAI - June, 2013

Change the Weather History Date:

Wednesday, June 12, 2013

  Actual Average Record
Temperature  
Mean Temperature 73 °F -  
Max Temperature 82 °F 81 °F 94 °F (1956)
Min Temperature 64 °F 57 °F 44 °F (1980)
Cooling Degree Days 8    
Growing Degree Days 23 (Base 50)    
Moisture  
Dew Point 68 °F    
Average Humidity 86    
Maximum Humidity 98    
Minimum Humidity 70    
Precipitation  
Precipitation 0.00 in - - ()
Sea Level Pressure  
Sea Level Pressure 29.82 in    
Wind  
Wind Speed 2 mph (SE)    
Max Wind Speed 18 mph    
Max Gust Speed 26 mph    
Visibility 8 miles    
Events Rain    
Averages and records for this station are not official NWS values.
T = Trace of Precipitation, MM = Missing Value Source: NWS Daily Summary

Daily Weather History Graph

Daily Weather History Graph

Search for Another Location

Airport or City:

Trip Planner

Search our weather history database for the weather conditions in past years. The results will help you decide how hot, cold, wet, or windy it might be!

Date:

Astronomy

Jun. 12, 2013 Rise Set
Actual Time 6:06 AM EDT 9:18 PM EDT
Civil Twilight 5:32 AM EDT 9:52 PM EDT
Nautical Twilight 4:48 AM EDT 10:36 PM EDT
Astronomical Twilight 3:55 AM EDT 11:30 PM EDT
Moon 9:47 AM EDT (6/12) 11:50 PM EDT (6/12)
Length of Visible Light 16h 20m
Length of Day
15h 11m
Waxing Crescent, 14% of the Moon is Illuminated
Jun 12
Waxing Crescent
Jun 16
First Quarter
Jun 23
Full
Jun 30
Last Quarter
Jul 8
New

Hourly Weather History & Observations

Time (EDT) Temp. Heat Index Dew Point Humidity Pressure Visibility Wind Dir Wind Speed Gust Speed Precip Events Conditions
12:14 AM 67.5 °F - 65.1 °F 92% 29.90 in 10.0 mi Calm Calm - N/A   Scattered Clouds
12:34 AM 68.0 °F - 64.9 °F 90% 29.89 in 10.0 mi Calm Calm - N/A   Scattered Clouds
12:54 AM 67.3 °F - 64.8 °F 92% 29.87 in 10.0 mi Calm Calm - N/A   Clear
1:14 AM 67.1 °F - 64.2 °F 90% 29.88 in 10.0 mi Calm Calm - N/A   Clear
1:34 AM 66.6 °F - 63.7 °F 90% 29.87 in 10.0 mi Calm Calm - N/A   Clear
1:54 AM 66.2 °F - 64.2 °F 93% 29.87 in 10.0 mi Calm Calm - N/A   Clear
2:14 AM 65.5 °F - 64.0 °F 95% 29.88 in 10.0 mi Calm Calm - N/A   Scattered Clouds
2:34 AM 65.5 °F - 64.2 °F 96% 29.87 in 10.0 mi Calm Calm - N/A   Scattered Clouds
2:54 AM 65.5 °F - 64.2 °F 96% 29.87 in 10.0 mi Calm Calm - N/A   Clear
3:14 AM 64.6 °F - 63.5 °F 96% 29.87 in 7.0 mi Calm Calm - N/A   Clear
3:34 AM 65.1 °F - 64.2 °F 97% 29.89 in 10.0 mi Calm Calm - N/A   Clear
3:54 AM 64.9 °F - 63.9 °F 96% 29.89 in 7.0 mi Calm Calm - N/A   Clear
4:14 AM 65.3 °F - 64.4 °F 97% 29.91 in 7.0 mi Calm Calm - N/A   Scattered Clouds
4:34 AM 65.1 °F - 64.4 °F 98% 29.90 in 7.0 mi Calm Calm - N/A Rain Light Rain
4:54 AM 65.3 °F - 64.8 °F 98% 29.90 in 7.0 mi Calm Calm - N/A   Clear
5:14 AM 65.5 °F - 64.9 °F 98% 29.88 in 7.0 mi Calm Calm - N/A Rain Light Rain
5:34 AM 65.3 °F - 64.8 °F 98% 29.87 in 5.0 mi ESE 5.8 mph - N/A   Clear
5:54 AM 65.7 °F - 64.9 °F 98% 29.87 in 7.0 mi Calm Calm - N/A   Clear
6:14 AM 65.7 °F - 64.8 °F 97% 29.91 in 5.0 mi Calm Calm - N/A   Clear
6:34 AM 65.7 °F - 64.9 °F 98% 29.89 in 4.0 mi NE 4.6 mph - N/A   Clear
6:54 AM 66.2 °F - 65.3 °F 97% 29.90 in 4.0 mi North 3.5 mph - N/A   Clear
7:14 AM 66.6 °F - 65.3 °F 96% 29.91 in 4.0 mi Calm Calm - N/A   Clear
7:34 AM 66.6 °F - 65.3 °F 96% 29.90 in 4.0 mi Calm Calm - N/A   Clear
7:54 AM 66.7 °F - 65.5 °F 96% 29.90 in 4.0 mi Calm Calm - N/A   Clear
8:14 AM 67.5 °F - 66.2 °F 96% 29.90 in 5.0 mi Calm Calm - N/A   Clear
8:34 AM 67.8 °F - 66.0 °F 94% 29.89 in 5.0 mi Calm Calm - N/A   Clear
8:54 AM 68.4 °F - 66.2 °F 93% 29.89 in 7.0 mi East 4.6 mph - N/A   Clear
9:14 AM 68.5 °F - 66.0 °F 92% 29.90 in 7.0 mi Calm Calm - N/A   Clear
9:34 AM 69.1 °F - 66.4 °F 91% 29.91 in 7.0 mi Calm Calm - N/A   Clear
9:54 AM 69.1 °F - 66.6 °F 92% 29.90 in 7.0 mi South 3.5 mph - N/A   Scattered Clouds
10:14 AM 69.6 °F - 67.3 °F 92% 29.90 in 7.0 mi South 3.5 mph - N/A   Scattered Clouds
10:34 AM 70.5 °F - 67.6 °F 91% 29.92 in 7.0 mi Calm Calm - N/A   Clear
10:54 AM 72.5 °F - 68.9 °F 88% 29.93 in 7.0 mi NW 5.8 mph - N/A   Clear
11:14 AM 73.9 °F - 68.7 °F 84% 29.92 in 7.0 mi Calm Calm - N/A   Clear
11:34 AM 75.0 °F - 68.9 °F 81% 29.90 in 7.0 mi East 4.6 mph - N/A   Clear
11:54 AM 76.8 °F - 69.6 °F 78% 29.90 in 7.0 mi SE 5.8 mph - N/A   Clear
12:14 PM 77.7 °F - 69.4 °F 76% 29.84 in 10.0 mi SE 11.5 mph - N/A   Clear
12:34 PM 77.7 °F - 68.9 °F 74% 29.87 in 10.0 mi SW 5.8 mph - N/A   Clear
12:54 PM 78.3 °F - 69.8 °F 75% 29.86 in 10.0 mi NNW 5.8 mph - N/A   Clear
1:14 PM 79.3 °F - 69.3 °F 71% 29.84 in 10.0 mi SE 5.8 mph - N/A   Clear
1:34 PM 79.7 °F - 70.9 °F 74% 29.83 in 10.0 mi South 8.1 mph - N/A   Clear
1:54 PM 81.0 °F 84.7 °F 70.9 °F 71% 29.83 in 10.0 mi South 9.2 mph 16.1 mph N/A   Clear
2:14 PM 81.0 °F 84.7 °F 70.7 °F 71% 29.81 in 10.0 mi ESE 5.8 mph - N/A   Clear
2:34 PM 81.1 °F 84.9 °F 70.7 °F 70% 29.80 in 10.0 mi ESE 9.2 mph - N/A   Clear
2:54 PM 80.8 °F 84.4 °F 70.7 °F 71% 29.80 in 10.0 mi SSE 6.9 mph - N/A   Clear
3:14 PM 81.3 °F 85.2 °F 70.9 °F 70% 29.78 in 10.0 mi SSE 4.6 mph - N/A   Clear
3:34 PM 80.8 °F 84.7 °F 71.2 °F 73% 29.79 in 10.0 mi Calm Calm - N/A   Clear
3:54 PM 80.8 °F 84.6 °F 71.1 °F 72% 29.82 in 10.0 mi Calm Calm - N/A   Scattered Clouds
4:14 PM 80.6 °F 84.4 °F 71.4 °F 73% 29.82 in 10.0 mi Calm Calm - N/A   Overcast
4:34 PM 82.9 °F 88.5 °F 72.5 °F 71% 29.82 in 10.0 mi WSW 4.6 mph - N/A   Mostly Cloudy
4:54 PM 81.9 °F 86.8 °F 72.5 °F 73% 29.81 in 10.0 mi Calm Calm - N/A   Mostly Cloudy
5:14 PM 82.9 °F 88.5 °F 72.7 °F 71% 29.80 in 10.0 mi West 3.5 mph - N/A   Scattered Clouds
5:34 PM 82.6 °F 88.1 °F 72.9 °F 72% 29.79 in 10.0 mi Calm Calm - N/A   Scattered Clouds
5:54 PM 82.6 °F 88.1 °F 72.7 °F 72% 29.78 in 10.0 mi Calm Calm - N/A   Mostly Cloudy
6:14 PM 82.6 °F 88.1 °F 72.9 °F 72% 29.76 in 10.0 mi Calm Calm - N/A   Scattered Clouds
6:34 PM 82.0 °F 87.4 °F 72.9 °F 74% 29.75 in 10.0 mi Calm Calm - N/A   Clear
6:54 PM 81.7 °F 86.9 °F 73.2 °F 75% 29.75 in 10.0 mi Calm Calm - N/A   Mostly Cloudy
7:14 PM 80.8 °F 85.8 °F 73.6 °F 79% 29.74 in 10.0 mi Calm Calm - N/A   Scattered Clouds
7:35 PM 79.7 °F - 73.4 °F 81% 29.74 in 10.0 mi NE 4.6 mph - N/A   Clear
7:54 PM 78.8 °F - 72.9 °F 82% 29.71 in 10.0 mi ENE 9.2 mph - N/A   Scattered Clouds
8:14 PM 77.9 °F - 72.5 °F 83% 29.68 in 10.0 mi East 10.4 mph - N/A   Clear
8:34 PM 77.7 °F - 72.5 °F 84% 29.70 in 10.0 mi East 5.8 mph - N/A   Clear
8:54 PM 77.5 °F - 72.9 °F 85% 29.69 in 10.0 mi East 6.9 mph - N/A   Mostly Cloudy
9:11 PM 77.9 °F - 72.5 °F 83% 29.67 in 10.0 mi SE 5.8 mph - N/A   Scattered Clouds
9:34 PM - - - N/A% 29.66 in 10.0 mi ESE 3.5 mph - N/A Rain Light Rain
9:54 PM - - - N/A% 29.65 in 5.0 mi SSE 9.2 mph - N/A Rain Light Rain
10:09 PM 74.7 °F - 72.5 °F 93% 29.65 in 5.0 mi South 12.7 mph 19.6 mph N/A Rain Heavy Rain
10:34 PM 72.0 °F - 69.3 °F 91% 29.63 in 7.0 mi SSW 11.5 mph - N/A Rain Light Rain
10:54 PM 71.1 °F - 67.6 °F 89% 29.65 in 10.0 mi SSW 18.4 mph 26.5 mph N/A Rain Light Rain
11:14 PM 69.4 °F - 67.3 °F 93% 29.69 in 7.0 mi SW 11.5 mph - N/A Rain Rain
11:34 PM 68.2 °F - 66.0 °F 93% 29.72 in 7.0 mi WNW 13.8 mph 24.2 mph N/A Rain Rain
11:54 PM 65.8 °F - 63.5 °F 92% 29.70 in 7.0 mi NW 9.2 mph 17.3 mph N/A Rain Rain